W0KHZ Weather Reports


time (UTC)temp
C
wind
direction
speed
KPH
gust
KPH
rain 1hr
cm
rain 24hr
cm
rain mn
cm
humidity
%
barometer
mb
20260905235032 23 0.0 0.0 0.00 0.00 0.00 82 1044.1
20260905234529 24 0.0 0.0 0.00 0.00 0.00 82 1043.9
20260905234026 24 0.0 0.0 0.00 0.00 0.00 82 1043.9
20260905233523 24 0.0 0.0 0.00 0.00 0.00 82 1044.0
20260905233020 24 0.0 0.0 0.00 0.00 0.00 81 1044.1
20260905232516 24 0.0 0.0 0.00 0.00 0.00 81 1044.2
20260905232033 24 0.0 0.0 0.00 0.00 0.00 80 1044.3
20260905231531 25 0.0 0.0 0.00 0.00 0.00 80 1044.3
20260905231027 25 0.0 0.0 0.00 0.00 0.00 80 1044.2
20260905230524 25 0.0 0.0 0.00 0.00 0.00 79 1044.4
20260905230021 25 0.0 0.0 0.00 0.00 0.00 79 1044.5
20260905225518 25 0.0 0.0 0.00 0.00 0.00 79 1044.5
20260905225034 25 0.0 0.0 0.00 0.00 0.00 78 1044.5
20260905224532 25 0.0 0.0 0.00 0.00 0.00 78 1044.5
20260905224029 25 272 0.0 1.6 0.00 0.00 0.00 77 1044.5
20260905223525 25 272 0.0 1.6 0.00 0.00 0.00 77 1044.5
20260905223022 26 272 1.6 3.2 0.00 0.00 0.00 76 1044.4
20260905222519 26 273 0.0 3.2 0.00 0.00 0.00 76 1044.4
20260905222035 26 272 0.0 1.6 0.00 0.00 0.00 77 1044.5
20260905221532 26 273 1.6 3.2 0.00 0.00 0.00 77 1044.5
20260905221028 26 273 0.0 3.2 0.00 0.00 0.00 77 1044.4
20260905220526 26 272 0.0 3.2 0.00 0.00 0.00 77 1044.4
20260905220023 26 272 1.6 4.8 0.00 0.00 0.00 77 1044.4
20260905215520 26 273 1.6 3.2 0.00 0.00 0.00 77 1044.4
20260905215016 26 273 0.0 3.2 0.00 0.00 0.00 77 1044.4
20260905214533 26 273 1.6 4.8 0.00 0.00 0.00 77 1044.4
20260905214030 26 273 0.0 1.6 0.00 0.00 0.00 77 1044.5
20260905213527 26 274 0.0 1.6 0.00 0.00 0.00 77 1044.5
20260905213025 26 274 1.6 1.6 0.00 0.00 0.00 76 1044.7
20260905212521 26 274 0.0 1.6 0.00 0.00 0.00 76 1044.7
20260905212017 26 273 0.0 1.6 0.00 0.00 0.00 76 1044.8
20260905211534 27 274 0.0 1.6 0.00 0.00 0.00 75 1044.7
20260905211031 27 0.0 0.0 0.00 0.00 0.00 74 1044.7
20260905210548 27 0.0 0.0 0.00 0.00 0.00 73 1044.8
20260905210025 28 274 0.0 1.6 0.00 0.00 0.00 72 1044.8
20260905205542 28 268 1.6 6.4 0.00 0.00 0.00 71 1044.8
20260905205018 28 269 1.6 3.2 0.00 0.00 0.00 71 1044.8
20260905204535 28 271 1.6 4.8 0.00 0.00 0.00 71 1044.8
20260905204032 28 265 1.6 6.4 0.00 0.00 0.00 71 1044.7
20260905203549 28 265 3.2 9.7 0.00 0.00 0.00 70 1044.7
20260905203026 28 261 3.2 9.7 0.00 0.00 0.00 70 1044.6
20260905202523 28 265 3.2 9.7 0.00 0.00 0.00 70 1044.6
20260905202020 28 272 3.2 6.4 0.00 0.00 0.00 70 1044.5
20260905201515 28 260 3.2 4.8 0.00 0.00 0.00 69 1044.6
20260905201053 28 282 1.6 9.7 0.00 0.00 0.00 70 1044.7
20260905200530 28 213 1.6 3.2 0.00 0.00 0.00 71 1044.7
20260905200027 28 231 1.6 3.2 0.00 0.00 0.00 69 1044.8
20260905195524 28 258 1.6 6.4 0.00 0.00 0.00 68 1044.9
20260905195022 28 280 0.0 3.2 0.00 0.00 0.00 69 1045.0
20260905194539 28 273 0.0 3.2 0.00 0.00 0.00 70 1045.0
20260905194035 28 262 3.2 9.7 0.00 0.00 0.00 70 1045.0
20260905193531 28 263 1.6 4.8 0.00 0.00 0.00 72 1045.1
20260905193028 28 268 1.6 6.4 0.00 0.00 0.00 73 1045.0
20260905192525 28 262 1.6 3.2 0.00 0.00 0.00 72 1045.2
20260905192022 28 202 1.6 4.8 0.00 0.00 0.00 72 1045.2
20260905191519 28 281 0.0 3.2 0.00 0.00 0.00 72 1045.2
20260905191015 28 267 1.6 3.2 0.00 0.00 0.00 71 1045.2
20260905190533 28 223 1.6 3.2 0.00 0.00 0.00 72 1045.2
20260905190030 28 170 1.6 4.8 0.00 0.00 0.00 74 1045.4
20260905185527 28 144 3.2 6.4 0.00 0.00 0.00 74 1045.4
20260905185044 27 162 1.6 3.2 0.00 0.00 0.00 75 1045.5
20260905184521 27 162 0.0 1.6 0.00 0.00 0.00 73 1045.3
20260905184037 27 160 0.0 1.6 0.00 0.00 0.00 74 1045.3
20260905183533 27 159 0.0 1.6 0.00 0.00 0.00 74 1045.4
20260905183031 27 172 0.0 1.6 0.00 0.00 0.00 73 1045.3
20260905182527 27 240 3.2 4.8 0.00 0.00 0.00 73 1045.2
20260905182045 27 165 1.6 3.2 0.00 0.00 0.00 75 1045.2
20260905181522 27 211 3.2 4.8 0.00 0.00 0.00 77 1045.2
20260905181019 27 225 3.2 4.8 0.00 0.00 0.00 78 1045.2
20260905180535 26 231 3.2 9.7 0.00 0.00 0.00 78 1045.4
20260905180032 26 214 1.6 3.2 0.00 0.00 0.00 78 1045.4
20260905175529 26 271 1.6 11.3 0.00 0.00 0.00 77 1045.5
20260905175026 26 264 1.6 6.4 0.00 0.00 0.00 78 1045.6
20260905174523 26 140 1.6 1.6 0.00 0.00 0.00 78 1045.6
20260905174020 26 189 1.6 4.8 0.00 0.00 0.00 79 1045.7
20260905173537 26 242 0.0 3.2 0.00 0.00 0.00 79 1045.7
20260905173054 26 233 1.6 3.2 0.00 0.00 0.00 80 1045.9
20260905172531 26 195 1.6 4.8 0.00 0.00 0.00 79 1045.8
20260905172029 26 187 1.6 3.2 0.00 0.00 0.00 80 1045.8
20260905171525 26 170 0.0 3.2 0.00 0.00 0.00 80 1045.7
20260905171023 26 264 1.6 4.8 0.00 0.00 0.00 80 1045.8
20260905170520 26 229 1.6 3.2 0.00 0.00 0.00 81 1045.8
20260905170016 25 289 1.6 6.4 0.00 0.00 0.00 81 1045.7
20260905165534 25 271 1.6 6.4 0.00 0.00 0.00 81 1045.9
20260905165031 25 270 1.6 6.4 0.00 0.00 0.00 81 1045.8
20260905164528 25 273 1.6 3.2 0.00 0.00 0.00 81 1045.9
20260905164045 25 260 1.6 4.8 0.00 0.00 0.00 81 1045.9
20260905163542 25 267 0.0 3.2 0.00 0.00 0.00 82 1045.9
20260905163019 25 267 1.6 3.2 0.00 0.00 0.00 83 1045.9
20260905162535 25 267 1.6 4.8 0.00 0.00 0.00 83 1045.8
20260905162032 25 267 0.0 3.2 0.00 0.00 0.00 84 1045.9
20260905161529 25 266 3.2 6.4 0.00 0.00 0.00 84 1045.8
20260905161026 25 251 1.6 4.8 0.00 0.00 0.00 85 1045.7
20260905160524 24 174 1.6 3.2 0.00 0.00 0.00 85 1045.7
20260905160021 24 174 1.6 3.2 0.00 0.00 0.00 85 1045.7
20260905155516 24 236 1.6 4.8 0.00 0.00 0.00 85 1045.6
20260905155033 24 278 0.0 1.6 0.00 0.00 0.00 86 1045.6
20260905154531 24 279 0.0 1.6 0.00 0.00 0.00 86 1045.7
20260905154028 24 279 0.0 1.6 0.00 0.00 0.00 86 1045.6
20260905153525 23 279 0.0 1.6 0.00 0.00 0.00 86 1045.6
20260905153042 23 279 0.0 1.6 0.00 0.00 0.00 86 1045.7
20260905152519 23 276 1.6 3.2 0.00 0.00 0.00 86 1045.7
20260905152035 23 272 0.0 1.6 0.00 0.00 0.00 86 1045.8
20260905151552 23 272 0.0 1.6 0.00 0.00 0.00 86 1045.7
20260905151048 23 273 0.0 3.2 0.00 0.00 0.00 87 1045.6
20260905150525 23 272 0.0 1.6 0.00 0.00 0.00 87 1045.6
20260905150022 23 0.0 0.0 0.00 0.00 0.00 87 1045.4
20260905145540 23 284 0.0 3.2 0.00 0.00 0.00 87 1045.3
20260905145016 23 300 0.0 3.2 0.00 0.00 0.00 87 1045.2
20260905144533 23 300 0.0 3.2 0.00 0.00 0.00 87 1045.3
20260905144030 23 300 0.0 1.6 0.00 0.00 0.00 88 1045.3
20260905143527 23 300 0.0 3.2 0.00 0.00 0.00 88 1045.3
20260905143024 23 300 0.0 3.2 0.00 0.00 0.00 88 1045.2
20260905142541 23 0.0 0.0 0.00 0.00 0.00 89 1045.3
20260905142017 23 0.0 0.0 0.00 0.00 0.00 89 1045.2
20260905141533 23 0.0 0.0 0.00 0.00 0.00 89 1045.2
20260905141031 23 300 0.0 1.6 0.00 0.00 0.00 90 1044.9
20260905140527 23 0.0 0.0 0.00 0.00 0.00 90 1044.8
20260905140026 22 0.0 0.0 0.00 0.00 0.00 90 1044.9
20260905135522 22 300 0.0 3.2 0.00 0.00 0.00 90 1044.8
20260905135019 22 300 0.0 3.2 0.00 0.00 0.00 90 1044.8
20260905134536 22 0.0 0.0 0.00 0.00 0.00 91 1044.8
20260905134032 22 0.0 0.0 0.00 0.00 0.00 91 1044.6
20260905133530 22 0.0 0.0 0.00 0.00 0.00 91 1044.6
20260905133047 22 0.0 0.0 0.00 0.00 0.00 91 1044.4
20260905132625 22 0.0 0.0 0.00 0.00 0.00 91 1044.2
20260905132021 22 0.0 0.0 0.00 0.00 0.00 91 1044.2
20260905131538 22 0.0 0.0 0.00 0.00 0.00 91 1044.0
20260905131034 22 0.0 0.0 0.00 0.00 0.00 91 1043.9
20260905130532 22 0.0 0.0 0.00 0.00 0.00 91 1043.8
20260905130029 22 0.0 0.0 0.00 0.00 0.00 91 1043.9
20260905125526 21 0.0 0.0 0.00 0.00 0.00 91 1043.9
20260905125024 21 0.0 0.0 0.00 0.00 0.00 91 1044.0
20260905124521 21 0.0 0.0 0.00 0.00 0.00 91 1044.1
20260905124018 21 0.0 0.0 0.00 0.00 0.00 91 1044.1
20260905123534 21 0.0 0.0 0.00 0.00 0.00 91 1044.0
20260905123052 21 0.0 0.0 0.00 0.00 0.00 91 1043.9
20260905122528 21 0.0 0.0 0.00 0.00 0.00 91 1043.9
20260905122025 21 0.0 0.0 0.00 0.00 0.00 91 1043.9
20260905121522 21 0.0 0.0 0.00 0.00 0.00 91 1043.8
20260905121019 21 0.0 0.0 0.00 0.00 0.00 91 1043.9
20260905120535 21 0.0 0.0 0.00 0.00 0.00 91 1043.9
20260905120032 21 0.0 0.0 0.00 0.00 0.00 91 1043.9
20260905115529 21 0.0 0.0 0.00 0.00 0.00 91 1043.8
20260905115027 21 0.0 0.0 0.00 0.08 0.00 91 1043.6
20260905114524 21 0.0 0.0 0.00 0.08 0.00 91 1043.7
20260905114021 20 0.0 0.0 0.00 0.08 0.00 91 1043.6
20260905113517 20 300 0.0 1.6 0.00 0.08 0.00 91 1043.6
20260905113033 20 0.0 0.0 0.00 0.08 0.00 91 1043.5
20260905112531 20 0.0 0.0 0.00 0.08 0.00 91 1043.4
20260905112028 20 0.0 0.0 0.00 0.08 0.00 91 1043.4
20260905111525 20 0.0 0.0 0.00 0.08 0.00 91 1043.4
20260905111022 20 0.0 0.0 0.00 0.08 0.00 90 1043.4
20260905110519 20 0.0 0.0 0.00 0.08 0.00 90 1043.6
20260905110035 20 0.0 0.0 0.00 0.08 0.00 90 1043.5
20260905105532 20 0.0 0.0 0.00 0.08 0.00 90 1043.1
20260905105029 20 0.0 0.0 0.00 0.08 0.00 90 1042.9
20260905104527 20 0.0 0.0 0.00 0.08 0.00 90 1042.8
20260905104024 21 0.0 0.0 0.00 0.08 0.00 90 1042.7
20260905103521 21 0.0 0.0 0.00 0.08 0.00 90 1042.7
20260905103017 21 0.0 0.0 0.00 0.08 0.00 90 1042.8
20260905102534 21 0.0 0.0 0.00 0.08 0.00 90 1042.8
20260905102031 21 0.0 0.0 0.00 0.08 0.00 90 1042.8
20260905101528 21 0.0 0.0 0.00 0.08 0.00 91 1042.7
20260905101106 21 0.0 0.0 0.00 0.08 0.00 91 1042.6
20260905100523 21 0.0 0.0 0.00 0.08 0.00 91 1042.4
20260905100020 21 0.0 0.0 0.00 0.08 0.00 90 1042.4
20260905095516 22 0.0 0.0 0.00 0.08 0.00 90 1042.5
20260905095033 22 0.0 0.0 0.00 0.08 0.00 90 1042.4
20260905094531 22 0.0 0.0 0.00 0.08 0.00 90 1042.5
20260905094028 22 0.0 0.0 0.00 0.08 0.00 90 1042.6
20260905093525 22 0.0 0.0 0.00 0.08 0.00 91 1042.6
20260905093042 22 0.0 0.0 0.00 0.08 0.00 91 1042.6
20260905092519 22 0.0 0.0 0.00 0.08 0.00 91 1042.6
20260905092035 22 0.0 0.0 0.00 0.08 0.00 91 1042.6
20260905091532 22 0.0 0.0 0.00 0.08 0.00 91 1042.7
20260905091029 22 0.0 0.0 0.00 0.08 0.00 91 1042.6
20260905090527 22 0.0 0.0 0.00 0.08 0.00 91 1042.6
20260905090024 22 0.0 0.0 0.00 0.08 0.00 91 1042.6
20260905085521 22 0.0 0.0 0.00 0.08 0.00 91 1042.6
20260905085017 22 0.0 0.0 0.00 0.08 0.00 91 1042.6
20260905084534 22 0.0 0.0 0.00 0.08 0.00 91 1042.7
20260905084051 22 0.0 0.0 0.00 0.08 0.00 91 1042.5
20260905083528 22 0.0 0.0 0.00 0.08 0.00 91 1042.5
20260905083045 22 0.0 0.0 0.00 0.08 0.00 91 1042.4
20260905082522 22 0.0 0.0 0.00 0.08 0.00 91 1042.5
20260905082018 22 0.0 0.0 0.00 0.08 0.00 91 1042.4
20260905081534 22 0.0 0.0 0.00 0.08 0.00 91 1042.5
20260905081031 22 0.0 0.0 0.00 0.08 0.00 91 1042.4
20260905080529 22 0.0 0.0 0.00 0.08 0.00 91 1042.6
20260905080026 22 0.0 0.0 0.00 0.08 0.00 91 1042.6
20260905075523 22 0.0 0.0 0.00 0.08 0.00 91 1042.5
20260905075021 22 0.0 0.0 0.00 0.08 0.00 91 1042.6
20260905074518 22 0.0 0.0 0.00 0.08 0.00 90 1042.5
20260905074035 22 0.0 0.0 0.00 0.08 0.00 90 1042.7
20260905073532 22 0.0 0.0 0.00 0.08 0.00 90 1042.5
20260905073029 22 0.0 0.0 0.00 0.08 0.00 91 1042.5
20260905072526 22 0.0 0.0 0.00 0.08 0.00 91 1042.4
20260905072023 22 0.0 0.0 0.00 0.08 0.00 91 1042.4
20260905071540 22 0.0 0.0 0.00 0.08 0.00 90 1042.4
20260905071036 22 0.0 0.0 0.00 0.08 0.00 90 1042.3
20260905070533 22 0.0 0.0 0.00 0.08 0.00 90 1042.5
20260905070030 22 0.0 0.0 0.00 0.08 0.00 90 1042.3
20260905065527 22 0.0 0.0 0.00 0.08 0.00 90 1042.4
20260905065025 22 0.0 0.0 0.00 0.08 0.00 90 1042.4
20260905064522 22 0.0 0.0 0.00 0.08 0.00 90 1042.3
20260905064018 22 0.0 0.0 0.00 0.08 0.00 90 1042.3
20260905063534 22 0.0 0.0 0.00 0.08 0.00 90 1042.1
20260905063032 22 0.0 0.0 0.00 0.08 0.00 90 1042.1
20260905062528 22 0.0 0.0 0.00 0.08 0.00 90 1042.2
20260905062026 22 0.0 0.0 0.00 0.08 0.00 90 1042.3
20260905061523 22 0.0 0.0 0.00 0.08 0.00 90 1042.3
20260905061040 22 0.0 0.0 0.00 0.08 0.00 90 1042.3
20260905060517 22 0.0 0.0 0.00 0.08 0.00 90 1042.4
20260905060033 23 0.0 0.0 0.00 0.08 0.00 90 1042.5
20260905055531 23 0.0 0.0 0.00 0.08 0.00 90 1042.4
20260905055049 22 0.0 0.0 0.00 0.08 0.00 90 1042.4
20260905054605 22 0.0 0.0 0.00 0.08 0.00 90 1042.3
20260905054022 22 0.0 0.0 0.00 0.08 0.00 90 1042.3
20260905053519 22 0.0 0.0 0.00 0.08 0.00 90 1042.2
20260905053035 23 0.0 0.0 0.00 0.08 0.00 90 1042.2
20260905052532 23 0.0 0.0 0.00 0.08 0.00 90 1042.2
20260905052029 23 0.0 0.0 0.00 0.08 0.00 90 1042.1
20260905051546 23 0.0 0.0 0.00 0.08 0.00 90 1042.0
20260905051023 23 0.0 0.0 0.00 0.08 0.00 89 1041.9
20260905050520 23 0.0 0.0 0.00 0.08 0.00 89 1042.0
20260905050016 23 0.0 0.0 0.00 0.08 0.08 89 1042.0
20260905045533 23 0.0 0.0 0.00 0.08 0.08 89 1041.9
20260905045030 23 0.0 0.0 0.00 0.08 0.08 89 1041.9
20260905044527 23 0.0 0.0 0.00 0.08 0.08 89 1041.8
20260905044024 23 0.0 0.0 0.00 0.08 0.08 89 1041.8
20260905043521 23 0.0 0.0 0.00 0.08 0.08 89 1041.7
20260905043018 23 0.0 0.0 0.00 0.08 0.08 89 1041.7
20260905042535 23 0.0 0.0 0.00 0.08 0.08 89 1041.5
20260905042032 23 0.0 0.0 0.00 0.08 0.08 89 1041.5
20260905041530 23 0.0 0.0 0.00 0.08 0.08 89 1041.5
20260905041046 23 0.0 0.0 0.00 0.08 0.08 89 1041.4
20260905040523 23 0.0 0.0 0.00 0.08 0.08 89 1041.6
20260905040100 23 0.0 0.0 0.00 0.08 0.08 89 1041.8
20260905035518 23 0.0 0.0 0.00 0.08 0.08 89 1041.8
20260905035034 23 0.0 0.0 0.00 0.08 0.08 89 1041.7
20260905034651 23 0.0 0.0 0.00 0.08 0.08 89 1041.8
20260905034128 23 0.0 0.0 0.00 0.08 0.08 89 1042.1
20260905033545 23 0.0 0.0 0.00 0.08 0.08 89 1042.0
20260905033021 23 0.0 0.0 0.00 0.08 0.08 89 1041.9
20260905032538 23 0.0 0.0 0.00 0.08 0.08 89 1041.8
20260905032035 23 0.0 0.0 0.00 0.08 0.08 89 1041.7
20260905031532 23 0.0 0.0 0.00 0.08 0.08 89 1042.0
20260905031050 23 0.0 0.0 0.00 0.08 0.08 88 1041.9
20260905030547 23 0.0 0.0 0.00 0.08 0.08 88 1041.9
20260905030044 23 0.0 0.0 0.00 0.08 0.08 88 1041.8
20260905025521 23 0.0 0.0 0.00 0.08 0.08 88 1041.8
20260905025018 23 0.0 0.0 0.00 0.08 0.08 89 1041.7
20260905024534 23 0.0 0.0 0.00 0.08 0.08 88 1041.7
20260905024031 23 0.0 0.0 0.00 0.08 0.08 88 1041.5
20260905023528 23 0.0 0.0 0.00 0.08 0.08 88 1041.6
20260905023025 23 0.0 0.0 0.00 0.08 0.08 87 1041.6
20260905022523 23 0.0 0.0 0.00 0.08 0.08 87 1041.6
20260905022020 24 0.0 0.0 0.00 0.08 0.08 87 1041.4
20260905021536 24 0.0 0.0 0.00 0.08 0.08 87 1041.4
20260905021213 24 0.0 0.0 0.00 0.08 0.08 86 1041.4
20260905020530 24 0.0 0.0 0.00 0.08 0.08 86 1041.5
20260905020027 24 0.0 0.0 0.00 0.08 0.08 86 1041.4
20260905015524 24 0.0 0.0 0.00 0.08 0.08 85 1041.4
20260905015021 24 0.0 0.0 0.00 0.08 0.08 85 1041.4
20260905014538 25 0.0 0.0 0.00 0.08 0.08 85 1041.3
20260905014034 25 0.0 0.0 0.00 0.08 0.08 85 1041.2
20260905013531 25 0.0 0.0 0.00 0.08 0.08 85 1041.2
20260905013029 25 0.0 0.0 0.00 0.08 0.08 84 1041.1
20260905012525 25 0.0 0.0 0.00 0.08 0.08 84 1041.2
20260905012023 25 0.0 0.0 0.00 0.08 0.08 84 1041.1
20260905011520 26 0.0 0.0 0.00 0.08 0.08 84 1041.0
20260905011016 26 0.0 0.0 0.00 0.08 0.08 82 1040.9
20260905010533 26 0.0 0.0 0.00 0.08 0.08 82 1040.9
20260905010030 26 0.0 0.0 0.00 0.08 0.08 81 1040.9
20260905005528 26 0.0 0.0 0.00 0.08 0.08 80 1040.9
20260905005025 27 0.0 0.0 0.00 0.08 0.08 80 1040.8
20260905004522 27 300 0.0 1.6 0.00 0.08 0.08 79 1040.8
20260905004019 27 0.0 0.0 0.00 0.08 0.08 78 1040.8
20260905003535 27 0.0 0.0 0.00 0.08 0.08 78 1040.6
20260905003032 27 300 0.0 1.6 0.00 0.08 0.08 78 1040.6
20260905002529 27 0.0 0.0 0.00 0.08 0.08 77 1040.5
20260905002046 28 0.0 0.0 0.00 0.08 0.08 77 1040.5
20260905001543 28 0.0 0.0 0.00 0.08 0.08 77 1040.5
20260905001020 28 0.0 0.0 0.00 0.08 0.08 76 1040.4
20260905000537 28 301 0.0 1.6 0.00 0.08 0.08 76 1040.4
20260905000033 28 0.0 0.0 0.00 0.08 0.08 75 1040.2
20260904235530 28 300 0.0 1.6 0.00 0.08 0.08 75 1040.3